Location: Arclight Observatory
(36.5667°N, 87.3333°W)
Time: 14:05:00

ISS - Visible Passes

Search period start: 25 October 2016 00:00
Search period end: 04 November 2016 00:00
Orbit: 399 x 408 km, 51.6° (Epoch: 26 October)

Date Brightness Start Highest point End Pass type
(mag) Time Alt. Az. Time Alt. Az. Time Alt. Az.
30 Oct -0.2 06:16:09 10° SSE 06:18:01 15° SE 06:19:55 10° E visible
01 Nov -1.9 06:06:15 10° SSW 06:09:18 38° SE 06:12:22 10° ENE visible
02 Nov -0.8 05:15:53 16° SSE 05:16:58 18° SE 05:19:18 10° E visible
03 Nov -3.5 05:59:17 31° WSW 06:00:40 75° NW 06:03:56 10° NE visible
